Date String (YYYY-MM-DD hh:mm:ss) UTC,Instrument flags,absolute air pressure of the measurement (hPa),sample flow rate (lpm),inlet stack bypass flow (lpm),air temperature of the measurement (°C),ambient temperature measured by the external sensor (°C),aerosol sample conditioner tube jacket temperature (°C),OPC LED temperature (°C),internal box temperature (°C),relative humidity of the measurement (%),span deviation,mass concentration of particles derived from Lorenz-Mie calculation of OPC scattering (μg/m³),mass concentration of particles derived from Lorenz-Mie calculation of OPC scattering (μg/m³),mass concentration of particles derived from Lorenz-Mie calculation of OPC scattering (μg/m³)
DateTimeUTC,F1_M11,P_M11,Q1_M11,Q2_M11,T1_M11,T2_M11,T3_M11,T4_M11,T5_M11,U1_M11,ZSPAN_M11,X0_M11,X2_M11,X1_M11
2024-02-18 18:00:00,SystemResetWarning,0824.9,5.01,000.00,019.2,018.8,000.0,027.5,020.9,12.9,0000.0,0004.02,0001.90,0001.68
2024-02-18 18:01:00,SystemResetWarning,0824.9,5.00,000.00,019.2,018.8,000.0,027.5,020.9,12.8,0000.0,0003.31,0001.88,0001.64
2024-02-18 18:02:00,SystemResetWarning,0824.8,5.01,000.00,019.2,018.8,000.0,027.5,020.9,12.6,0000.0,0002.58,0001.84,0001.61
2024-02-18 18:03:00,SystemResetWarning,0824.9,4.99,000.00,019.2,018.8,000.0,027.5,020.9,12.6,0000.0,0002.67,0001.84,0001.57
2024-02-18 18:04:00,SystemResetWarning,0824.8,4.98,000.00,019.2,018.8,000.0,027.5,021.0,12.6,0000.0,0002.64,0001.82,0001.52
2024-02-18 18:05:00,SystemResetWarning,0824.8,5.00,000.00,019.2,018.8,000.0,027.5,021.0,12.3,0000.0,0002.55,0001.79,0001.49
2024-02-18 18:06:00,SystemResetWarning,0824.8,5.01,000.00,019.2,018.8,000.0,027.5,021.0,12.1,0000.0,0002.56,0001.77,0001.47
2024-02-18 18:07:00,SystemResetWarning,0824.8,5.00,000.00,019.2,018.8,000.0,027.5,021.0,12.1,0000.0,0002.54,0001.74,0001.43
2024-02-18 18:08:00,SystemResetWarning,0824.8,5.00,000.00,019.2,018.8,000.0,027.5,021.0,11.9,0000.0,0002.54,0001.75,0001.43
2024-02-18 18:09:00,SystemResetWarning,0824.8,4.99,000.00,019.2,018.8,000.0,027.5,021.0,11.9,0000.0,0002.55,0001.76,0001.43
2024-02-18 18:10:00,SystemResetWarning,0824.8,5.00,000.00,019.2,018.8,000.0,027.5,021.0,11.6,0000.0,0002.55,0001.75,0001.41
2024-02-18 18:11:00,SystemResetWarning,0824.8,4.99,000.00,019.2,018.8,000.0,027.5,021.0,12.0,0000.0,0003.01,0001.72,0001.39
2024-02-18 18:12:00,SystemResetWarning,0824.7,5.00,000.00,019.2,018.8,000.0,027.5,021.0,11.6,0000.0,0003.86,0001.71,0001.37
2024-02-18 18:13:00,SystemResetWarning,0824.7,5.00,000.00,019.2,018.8,000.0,027.6,021.0,11.6,0000.0,0003.84,0001.67,0001.33
2024-02-18 18:14:00,SystemResetWarning,0824.7,5.01,000.00,019.2,018.8,000.0,027.6,021.0,11.4,0000.0,0003.65,0001.58,0001.29
2024-02-18 18:15:00,SystemResetWarning,0824.7,5.01,000.00,019.2,018.8,000.0,027.6,021.0,11.5,0000.0,0003.57,0001.51,0001.25
2024-02-18 18:16:00,SystemResetWarning,0824.7,5.00,000.00,019.2,018.8,000.0,027.6,021.0,11.5,0000.0,0004.36,0001.49,0001.21
2024-02-18 18:17:00,SystemResetWarning,0824.7,5.00,000.00,019.2,018.8,000.0,027.6,021.0,11.1,0000.0,0004.35,0001.42,0001.17
2024-02-18 18:18:00,SystemResetWarning,0824.7,5.00,000.00,019.2,018.8,000.0,027.6,021.0,11.1,0000.0,0004.40,0001.40,0001.14
2024-02-18 18:19:00,SystemResetWarning,0824.7,4.99,000.00,019.2,018.8,000.0,027.6,021.0,11.5,0000.0,0004.33,0001.37,0001.12
2024-02-18 18:20:00,SystemResetWarning,0824.6,5.00,000.00,019.3,018.8,000.0,027.6,021.0,12.2,0000.0,0004.32,0001.36,0001.09
2024-02-18 18:21:00,SystemResetWarning,0824.6,5.00,000.00,019.2,018.8,000.0,027.6,021.0,11.7,0000.0,0004.37,0001.34,0001.07
2024-02-18 18:22:00,SystemResetWarning,0824.5,5.00,000.00,019.2,018.8,000.0,027.6,021.0,11.5,0000.0,0003.82,0001.33,0001.05
2024-02-18 18:23:00,SystemResetWarning,0824.5,5.00,000.00,019.2,018.8,000.0,027.6,021.0,11.8,0000.0,0002.99,0001.31,0001.03
2024-02-18 18:24:00,SystemResetWarning,0824.7,5.01,000.00,019.2,018.8,000.0,027.6,021.0,11.8,0000.0,0003.01,0001.31,0001.02
2024-02-18 18:25:00,SystemResetWarning,0824.7,5.01,000.00,019.3,018.8,000.0,027.6,021.0,12.1,0000.0,0002.99,0001.30,0001.01
2024-02-18 18:26:00,SystemResetWarning,0824.7,5.00,000.00,019.3,018.8,000.0,027.6,021.0,11.5,0000.0,0002.99,0001.29,0001.00
2024-02-18 18:27:00,SystemResetWarning,0824.6,4.99,000.00,019.3,018.8,000.0,027.6,021.0,11.5,0000.0,0002.31,0001.26,0000.98
2024-02-18 18:28:00,SystemResetWarning,0824.4,5.00,000.00,019.3,018.8,000.0,027.6,021.1,11.5,0000.0,0002.00,0001.27,0000.98
2024-02-18 18:29:00,SystemResetWarning,0824.5,5.00,000.00,019.3,018.9,000.0,027.6,021.1,11.4,0000.0,0001.92,0001.26,0000.98
2024-02-18 18:30:00,SystemResetWarning,0824.5,5.01,000.00,019.3,018.9,000.0,027.6,021.1,11.4,0000.0,0001.88,0001.24,0000.96
2024-02-18 18:31:00,SystemResetWarning,0824.6,5.01,000.00,019.3,018.9,000.0,027.7,021.1,11.6,0000.0,0002.12,0001.21,0000.95
2024-02-18 18:32:00,SystemResetWarning,0824.6,4.99,000.00,019.3,018.9,000.0,027.7,021.1,11.5,0000.0,0002.25,0001.18,0000.95
2024-02-18 18:33:00,SystemResetWarning,0824.6,4.99,000.00,019.3,018.9,000.0,027.7,021.1,11.5,0000.0,0002.16,0001.15,0000.94
2024-02-18 18:34:00,SystemResetWarning,0824.5,5.00,000.00,019.4,018.9,000.0,027.7,021.1,11.7,0000.0,0002.20,0001.14,0000.93
2024-02-18 18:35:00,SystemResetWarning,0824.4,5.00,000.00,019.4,019.0,000.0,027.7,021.1,11.9,0000.0,0002.24,0001.14,0000.92
2024-02-18 18:36:00,SystemResetWarning,0824.3,5.01,000.00,019.4,019.0,000.0,027.7,021.2,11.8,0000.0,0002.24,0001.14,0000.93
2024-02-18 18:37:00,SystemResetWarning,0824.4,4.99,000.00,019.4,019.0,000.0,027.7,021.2,12.6,0000.0,0002.48,0001.15,0000.93
2024-02-18 18:38:00,SystemResetWarning,0824.4,4.99,000.00,019.4,019.0,000.0,027.7,021.2,12.3,0000.0,0003.00,0001.17,0000.94
2024-02-18 18:39:00,SystemResetWarning,0824.4,4.99,000.00,019.4,019.0,000.0,027.7,021.2,12.3,0000.0,0003.13,0001.18,0000.95
2024-02-18 18:40:00,SystemResetWarning,0824.3,4.99,000.00,019.4,019.0,000.0,027.7,021.2,11.7,0000.0,0003.32,0001.19,0000.96
2024-02-18 18:41:00,SystemResetWarning,0824.4,5.01,000.00,019.4,019.0,000.0,027.7,021.2,11.4,0000.0,0003.55,0001.24,0000.97
2024-02-18 18:42:00,SystemResetWarning,0824.4,5.01,000.00,019.4,019.0,000.0,027.8,021.2,12.2,0000.0,0003.31,0001.23,0000.97
2024-02-18 18:43:00,SystemResetWarning,0824.4,5.00,000.00,019.5,019.1,000.0,027.8,021.2,11.6,0000.0,0003.14,0001.25,0000.97
2024-02-18 18:44:00,SystemResetWarning,0824.4,4.98,000.00,019.5,019.1,000.0,027.8,021.3,10.9,0000.0,0003.24,0001.29,0000.98
2024-02-18 18:45:00,SystemResetWarning,0824.4,4.99,000.00,019.5,019.1,000.0,027.8,021.2,11.5,0000.0,0003.26,0001.33,0001.00
2024-02-18 18:46:00,SystemResetWarning,0824.4,5.00,000.00,019.5,019.1,000.0,027.8,021.3,12.3,0000.0,0003.14,0001.31,0001.02
2024-02-18 18:47:00,SystemResetWarning,0824.4,5.01,000.00,019.5,019.1,000.0,027.8,021.3,12.1,0000.0,0003.27,0001.38,0001.05
2024-02-18 18:48:00,SystemResetWarning,0824.3,5.00,000.00,019.5,019.1,000.0,027.8,021.3,11.9,0000.0,0003.28,0001.40,0001.06
2024-02-18 18:49:00,SystemResetWarning,0824.3,4.99,000.00,019.5,019.2,000.0,027.8,021.3,10.8,0000.0,0002.65,0001.44,0001.09
2024-02-18 18:50:00,SystemResetWarning,0824.3,5.01,000.00,019.5,019.2,000.0,027.8,021.3,10.0,0000.0,0002.53,0001.43,0001.10
2024-02-18 18:51:00,SystemResetWarning,0824.3,5.01,000.00,019.5,019.2,000.0,027.8,021.3,09.5,0000.0,0002.36,0001.44,0001.12
2024-02-18 18:52:00,SystemResetWarning,0824.3,5.00,000.00,019.5,019.2,000.0,027.8,021.3,09.0,0000.0,0002.24,0001.46,0001.14
2024-02-18 18:53:00,SystemResetWarning,0824.3,4.99,000.00,019.5,019.2,000.0,027.8,021.3,10.1,0000.0,0002.23,0001.49,0001.17
2024-02-18 18:54:00,SystemResetWarning,0824.2,5.01,000.00,019.6,019.2,000.0,027.8,021.3,09.8,0000.0,0002.24,0001.53,0001.19
2024-02-18 18:55:00,SystemResetWarning,0824.1,5.00,000.00,019.6,019.2,000.0,027.9,021.3,10.4,0000.0,0002.31,0001.56,0001.22
2024-02-18 18:56:00,SystemResetWarning,0824.0,5.00,000.00,019.6,019.2,000.0,027.9,021.3,10.1,0000.0,0002.66,0001.61,0001.26
2024-02-18 18:57:00,SystemResetWarning,0824.0,5.00,000.00,019.6,019.2,000.0,027.9,021.4,10.3,0000.0,0002.83,0001.66,0001.29
2024-02-18 18:58:00,SystemResetWarning,0824.0,5.01,000.00,019.6,019.2,000.0,027.9,021.4,10.8,0000.0,0002.86,0001.65,0001.29
2024-02-18 18:59:00,SystemResetWarning,0824.0,5.00,000.00,019.6,019.2,000.0,027.9,021.4,11.2,0000.0,0003.08,0001.66,0001.26
